Dauntless Aviation
Airports Europe France
LFBD
BOD

Bordeaux-Mérignac Airport

Bordeaux/Mérignac, FRANCE

Airport Info
Suggest Updated Information for this Airport

Location

Latitude / Longitude: 44°49'41"N / 0°42'56"W
  44°49.698'N / 0°42.936'W
  44.8283 / -0.7156

Nearby radio navigation aids

BD BORDEAUX NDB. 228.2° 9.2nm from BD to field.
BDX BORDEAUX VORTAC on field.
BE BORDEAUX NDB. 262.1° 13.8nm from BE to field.
NB BORDEAUX NDB. 202.9° 20.4nm from NB to field.

Runway Information

Runway 05 /23

Dimensions: 10171 x 148 ft.
Surface: ASP
 
Runway 05
Runway 23
Latitude: 44.819103 44.838694
Longitude: -0.728983 -0.701
Elevation: 160 ft. 160 ft.
Runway true heading: 42.9 222.9
 

Runway 11 /29

Dimensions: 7923 x 148 ft.
Surface: ASP
 
Runway 11
Runway 29
Latitude: 44.831567 44.825411
Longitude: -0.729242 -0.699897
Elevation: 153 ft. 153 ft.
Runway true heading: 103.9 283.9
 

Instrument Procedures

IAPs (Instrument Approach Procedures)

  Aerodrome Information (Textual)
  Visual Approach Chart
  Visual Approach Chart-HEL
Satellite photo at:
Airport distance calculator
From:
Weather Reports

METAR

LFBD

LFBD 200500Z AUTO 21010KT 9999 -RA FEW037 BKN044 BKN052 09/08 Q1018 TEMPO 4000 RA BKN008
LFBC
25.4nm S
LFBC 200500Z AUTO 23012KT 9999 -RA FEW024 SCT031 BKN044 11/08 Q1019

TAF

LFBD
TAF LFBD 192300Z 2000/2106 26005KT 9999 BKN030 BECMG 2003/2005 26015KT -RA BKN010 PROB40 2004/2106 4000 RA BKN008 PROB30 TEMPO 2008/2018 27020G40KT 2000 RA OVC004 TX12/2012Z TN07/2000Z
LFBC
25.4nm S
TAF LFBC 192000Z 1921/2021 30012KT 9999 BKN035 TEMPO 1921/1924 3000 SHRA BKN025TCU BECMG 2004/2006 24020G30KT 5000 -RA BKN010 TEMPO 2008/2021 26025G40KT 2000 +DZRA BKN002 OVC005 BECMG 2013/2015 BKN003
Safelog

 

Dauntless Aviation

© 2007-2018 Dauntless Aviation, all rights reserved
Information provided via PilotNav comes from a variety of official and unofficial data sources. As errors are possible, do not use PilotNav for primary flight planning purposes. Verify any information that you receive via PilotNav with current and canonical charts and other official documents. The material in this database is subject to database copyrights held by Dauntless Aviation and may not be copied without the express permission of Dauntless Aviation - licenses for use of part of all of this data are available for purchase; enquire via the Dauntless Aviation helpdesk. A number of mechanisms and markers exist in the database to protect against and identify infringement / copyright. Automated queries against this website are stictly prohibited, and all activity is logged and analyzed.